Location: Newark
(51.2625°N, 13.3939°E)
Time: 06:03:28
(UTC+00:00)

Explorer 7 - Pass Details

Date: 16 November 2019
Orbit: 485 x 680 km, 50.3° (Epoch: 08 December)

Event Time Altitude Azimuth Distance (km) Brightness Sun altitude
Rises 22:57:03 0° 191° (S) 2,929 - -57.6°
Reaches altitude 10° 23:00:36 10° 163° (SSE) 1,982 - -57.5°
Maximum altitude 23:02:38 13° 137° (SE) 1,776 - -57.5°
Drops below altitude 10° 23:04:36 10° 110° (ESE) 1,932 - -57.5°
Sets 23:07:58 0° 82° (E) 2,786 - -57.4°
